Flag for Argentina Weather past 2 weeks in Corrientes, Corrientes, Argentina

61 °F

Thunderstorms. Mostly cloudy.

Feels Like: 61 °F
Forecast: 56 / 64 °F
Wind: 8 mph from South

Location: Resistencia Aero.

Current Time: Oct 9, 2015 at 2:54:40 AM

Latest Report: Oct 9, 2015 at 1:00 AM

Visibility: 4 mi

Pressure: 29.83 "Hg

Humidity: 100%

Dew point: 61 °F

Location of CorrientesLocation

Historic Weather in Corrientes — Graph


Corrientes temperature yesterday

Maximum temperature yesterday: 66 °F (at 12:00 AM)
Minimum temperature yesterday: 61 °F (at 12:00 PM)
Average temperature yesterday: 62 °F

Past Weeks' High & Low Weather Summary

High99 °F (Oct 6, 1:00 PM)100% (Sep 24, 8:00 AM)32.52 "Hg (Sep 24, 8:00 AM)
Low48 °F (Oct 4, 1:00 AM)29% (Sep 29, 2:00 PM)29.59 "Hg (Oct 6, 4:00 PM)
Average70 °F69%29.88 "Hg
* Reported Sep 24 1:00 AM — Oct 9 1:00 AM, Corrientes, Weather by CustomWeather, © 2015

Note: Actual official high and low records may vary slightly from our data, if they occured in-between our weather recording intervals... More about our weather records


Corrientes weather history for previous 24 hours

Time TempWeatherWind HumidityBarometerVisibility
1:00 AM
Fri, Oct 9
61 °FThunderstorms. Mostly cloudy.8 mph100%29.83 "Hg4 mi
12:00 AM61 °FCool.3 mph100%29.89 "HgN/A
11:00 PM
Thu, Oct 8
61 °FThunderstorms. Mostly cloudy.5 mph100%29.89 "Hg4 mi
10:00 PM61 °FThunderstorms. Mostly cloudy.7 mph100%29.86 "Hg3 mi
9:00 PM61 °FDrizzle. Low clouds.6 mph100%29.83 "HgN/A
8:00 PM61 °FFog.6 mph100%29.83 "HgN/A
6:00 PM61 °FThunderstorms. Fog.7 mph100%29.80 "HgN/A
5:00 PM61 °FThunderstorms. Fog.6 mph100%29.77 "Hg5 mi
4:00 PM63 °FThunderstorms. Mostly cloudy.9 mph94%29.83 "Hg1 mi
3:05 PM63 °FThunderstorms. Mostly cloudy.9 mph88%29.80 "HgN/A
3:00 PM63 °FThunderstorms. Mostly cloudy.9 mph88%29.80 "HgN/A
2:00 PM61 °FThunderstorms. Mostly cloudy.12 mph100%29.80 "HgN/A
1:00 PM61 °FThunderstorms. Mostly cloudy.10 mph100%29.83 "Hg2 mi
12:00 PM61 °FThunderstorms. Mostly cloudy.6 mph100%29.86 "Hg3 mi
11:00 AM63 °FThunderstorms. Mostly cloudy.9 mph94%29.86 "Hg3 mi
10:00 AM63 °FThunderstorms. Mostly cloudy.9 mph94%29.83 "HgN/A
9:00 AM63 °FLow clouds.12 mph94%29.83 "HgN/A
8:00 AM63 °FLow clouds.12 mph94%29.80 "HgN/A
7:00 AM63 °FThunderstorms. Mostly cloudy.12 mph94%29.77 "Hg4 mi
6:45 AM63 °FThunderstorms. Low clouds.10 mph94%29.74 "Hg4 mi
6:00 AM63 °FThunderstorms. Low clouds.10 mph94%29.74 "HgN/A
5:00 AM63 °FThunderstorms. Low clouds.9 mph94%29.71 "HgN/A
4:00 AM64 °FThunderstorms. Low clouds.12 mph88%29.71 "HgN/A
3:00 AM64 °FThunderstorms. Mostly cloudy.9 mph94%29.68 "Hg5 mi
2:00 AM64 °FThunderstorms. Low clouds.14 mph94%29.71 "Hg3 mi
Weather by CustomWeather, © 2015

See weather overviewHow to use our weather pages